FW3958 Weather Reports


time (UTC)temp
C
wind
direction
speed
KPH
gust
KPH
rain 1hr
cm
rain 24hr
cm
rain mn
cm
humidity
%
barometer
mb
20260902191558 15 138 3.2 11.3 0.03 0.36 0.36 99 1004.8
20260902190055 15 170 4.8 16.1 0.05 0.36 0.36 100 1004.9
20260902184611 15 109 1.6 8.0 0.08 0.36 0.36 100 1004.9
20260902183055 14 120 0.0 4.8 0.05 0.33 0.33 100 1005.0
20260902181548 14 63 1.6 8.0 0.08 0.33 0.33 100 1005.3
20260902180047 14 95 1.6 9.7 0.10 0.30 0.30 100 1005.7
20260902174545 14 99 4.8 22.5 0.10 0.28 0.28 98 1006.2
20260902173040 14 130 6.4 16.1 0.15 0.28 0.28 100 1006.5
20260902171540 14 128 3.2 8.0 0.15 0.25 0.25 100 1006.7
20260902170037 14 129 0.0 3.2 0.10 0.20 0.20 100 1006.9
20260902164536 14 129 0.0 3.2 0.10 0.18 0.18 100 1006.9
20260902163038 14 124 3.2 6.4 0.08 0.13 0.13 100 1007.0
20260902161534 14 127 0.0 3.2 0.05 0.10 0.10 100 1007.1
20260902160032 13 126 1.6 9.7 0.05 0.10 0.10 100 1007.3
20260902154531 13 153 0.0 4.8 0.03 0.08 0.08 100 1007.4
20260902153030 13 118 1.6 9.7 0.03 0.05 0.05 99 1007.5
20260902151529 13 125 4.8 12.9 0.03 0.05 0.05 99 1007.6
20260902150027 14 126 0.0 9.7 0.03 0.05 0.05 99 1007.6
20260902144534 14 161 0.0 6.4 0.03 0.05 0.05 99 1007.8
20260902143025 14 131 1.6 9.7 0.00 0.03 0.03 98 1007.9
20260902141530 14 111 0.0 6.4 0.00 0.03 0.03 98 1007.8
20260902140033 14 118 0.0 4.8 0.00 0.03 0.03 97 1008.0
20260902134522 14 114 1.6 8.0 0.00 0.03 0.03 96 1008.0
20260902133020 14 139 4.8 9.7 0.00 0.03 0.03 96 1008.1
20260902131530 14 107 3.2 9.7 0.00 0.03 0.03 97 1008.2
20260902130015 13 179 0.0 12.9 0.00 0.03 0.03 99 1008.6
20260902124514 13 149 0.0 3.2 0.00 0.03 0.03 100 1008.7
20260902123015 13 154 0.0 0.0 0.00 0.03 0.03 100 1009.1
20260902121509 13 154 0.0 6.4 0.00 0.03 0.03 100 1009.3
20260902120008 13 129 0.0 8.0 0.00 0.03 0.03 100 1009.4
20260902114508 13 108 1.6 4.8 0.00 0.03 0.03 100 1009.7
20260902113004 13 124 1.6 4.8 0.00 0.03 0.03 100 1010.0
20260902111502 13 158 0.0 4.8 0.00 0.03 0.03 100 1010.2
20260902110001 13 155 0.0 1.6 0.00 0.03 0.03 100 1010.4
20260902104601 13 155 0.0 1.6 0.00 0.03 0.03 100 1010.3
20260902103105 13 155 0.0 1.6 0.00 0.03 0.03 100 1010.4
20260902101558 13 159 0.0 4.8 0.03 0.03 0.03 100 1010.4
20260902100112 13 160 0.0 1.6 0.03 0.03 0.03 100 1010.6
20260902094555 13 160 0.0 4.8 0.03 0.03 0.03 100 1010.7
20260902093054 14 133 0.0 4.8 0.03 0.03 0.03 100 1010.7
20260902091606 14 109 4.8 14.5 0.00 0.00 0.00 100 1011.0
20260902090051 14 197 1.6 9.7 0.00 0.00 0.00 100 1011.4
20260902084548 14 180 3.2 8.0 0.00 0.00 0.00 100 1011.4
20260902083046 14 170 3.2 14.5 0.00 0.00 0.00 100 1011.4
20260902081546 14 174 9.7 14.5 0.00 0.00 0.00 99 1011.5
20260902080058 15 188 9.7 20.9 0.00 0.00 0.00 99 1011.7
20260902074542 15 193 11.3 24.1 0.00 0.00 0.00 99 1011.8
20260902073038 15 189 11.3 24.1 0.00 0.00 0.00 99 1011.8
20260902071552 14 188 4.8 12.9 0.00 0.00 0.00 98 1012.0
20260902070032 13 174 0.0 3.2 0.00 0.00 0.00 96 1012.0
20260902064532 13 174 0.0 1.6 0.00 0.00 0.00 96 1012.2
20260902063041 13 174 0.0 1.6 0.00 0.00 0.00 96 1012.1
20260902061541 13 174 0.0 0.0 0.00 0.00 0.00 95 1012.1
20260902060032 13 174 0.0 0.0 0.00 0.00 0.00 93 1012.3
20260902054535 14 174 0.0 1.6 0.00 0.00 0.00 91 1012.4
20260902053027 15 174 0.0 3.2 0.00 0.00 0.00 91 1012.5
20260902051529 15 136 0.0 3.2 0.00 0.00 0.00 90 1012.4
20260902050031 15 176 0.0 4.8 0.00 0.00 0.00 91 1012.5
20260902044529 15 178 1.6 4.8 0.00 0.00 0.00 92 1012.8
20260902043021 15 178 0.0 3.2 0.00 0.00 0.00 91 1012.6
20260902041531 15 178 0.0 1.6 0.00 0.00 0.00 91 1012.7
20260902040020 15 178 0.0 0.0 0.00 0.00 0.00 90 1012.8
20260902034520 15 178 0.0 1.6 0.00 0.00 0.00 89 1012.8
20260902033020 16 177 1.6 6.4 0.00 0.00 0.00 89 1012.9
20260902031518 15 209 3.2 11.3 0.00 0.00 0.00 89 1012.8
20260902030022 16 199 4.8 12.9 0.00 0.00 0.00 89 1012.7
20260902024516 16 183 6.4 16.1 0.00 0.00 0.00 89 1012.8
20260902023019 16 205 6.4 19.3 0.00 0.00 0.00 88 1012.8
20260902021518 16 226 12.9 19.3 0.00 0.00 0.00 88 1013.0
20260902020015 16 214 8.0 17.7 0.00 0.00 0.00 87 1013.2
20260902014522 17 198 8.0 17.7 0.00 0.00 0.00 87 1013.1
20260902013015 17 205 11.3 24.1 0.00 0.00 0.00 86 1013.2
20260902011547 17 212 8.0 24.1 0.00 0.00 0.00 86 1013.2
20260902010022 18 215 8.0 20.9 0.00 0.00 0.00 85 1013.1
20260902004516 18 220 12.9 24.1 0.00 0.00 0.00 84 1013.0
20260902003010 18 251 12.9 25.7 0.00 0.00 0.00 85 1013.1
20260902001512 18 213 12.9 20.9 0.00 0.00 0.00 84 1013.0
20260902000015 18 174 12.9 20.9 0.00 0.00 0.00 84 1013.0
20260901234509 18 261 8.0 22.5 0.00 0.00 0.00 84 1013.0
20260901233010 19 195 12.9 22.5 0.00 0.00 0.00 80 1013.0
20260901231508 20 189 12.9 27.4 0.00 0.00 0.00 77 1013.2
20260901230011 20 211 17.7 29.0 0.00 0.00 0.00 76 1013.2
20260901224506 20 203 8.0 32.2 0.00 0.00 0.00 77 1013.2
20260901223014 20 205 17.7 32.2 0.00 0.00 0.00 77 1013.3
20260901221502 19 222 3.2 25.7 0.00 0.00 0.00 79 1013.1
20260901220001 19 201 11.3 27.4 0.00 0.00 0.00 81 1013.1
20260901214501 18 219 14.5 24.1 0.00 0.00 0.00 82 1013.1
20260901213108 18 197 17.7 29.0 0.00 0.00 0.00 83 1013.1
20260901211600 18 197 16.1 27.4 0.00 0.00 0.00 83 1013.2
20260901210059 19 199 8.0 24.1 0.00 0.00 0.00 83 1013.2
20260901204559 18 255 11.3 27.4 0.00 0.00 0.00 82 1013.2
20260901203104 19 214 11.3 25.7 0.00 0.00 0.00 82 1013.2
20260901201556 18 222 11.3 24.1 0.00 0.00 0.00 84 1013.1
20260901200106 18 294 4.8 20.9 0.00 0.00 0.00 85 1013.2
20260901194603 18 268 11.3 25.7 0.00 0.00 0.00 84 1013.4
20260901193101 18 202 6.4 19.3 0.00 0.00 0.00 88 1013.5